Retour au catalogue

STARLINK-32181

ActifCommunicationsVLEO
NORAD 60349·PAYLOAD·🇺🇸 United States

Lancé Aug 2, 2024 depuis Cape Canaveral Space Force Station

Loading…

Prochains Passages (prochaines 24 heures)

TLE

FraisSource: CelesTrak SupGP

Époque: Sep 14, 2026, 21:04 UTC

1 60349C 24136W   26257.87826389  .00046507  00000+0  13746-2 0  2572
2 60349  53.1568 272.3385 0001146  94.1211 296.8710 15.34355884    12

Suivez STARLINK-32181 en temps réel avec AllMySat

Download on the App Store